THAICOM 4               
1 28786U 05028A   19260.50475958 -.00000367  00000-0  00000+0 0  9993
2 28786   0.0234 158.2935 0002450  25.3079 113.7616  1.00268988 51612
ARIANE 5 R/B            
1 28787U 05028B   19260.32854309 -.00000176  00000-0 -25843-4 0  9991
2 28787   7.0559  81.7645 7165134  99.8192 326.3603  2.26573405116764